Location: Chena
(64.8152°N, 147.9227°W)
Time: 19:04:00
(UTC+00:00)

Transit 4A - Visible Passes

Search period start: 04 March 2021 00:00
Search period end: 14 March 2021 00:00
Orbit: 866 x 978 km, 66.8° (Epoch: 04 March)

Date Brightness Start Highest point End Pass type
(mag) Time Alt. Az. Time Alt. Az. Time Alt. Az.
04 Mar 9.6 04:42:33 10° WNW 04:47:53 32° WSW 04:53:04 10° S visible
05 Mar 10.0 04:52:01 10° WNW 04:56:55 26° WSW 05:01:42 10° S visible
06 Mar 10.3 05:01:34 10° WNW 05:05:54 21° WSW 05:10:08 10° SSW visible
07 Mar 10.5 05:11:18 10° WNW 05:14:50 16° WSW 05:18:18 10° SW visible
08 Mar 10.8 05:21:26 10° W 05:23:42 12° WSW 05:25:56 10° WSW visible
